This is the latest recevied weather packets stored in our database for station/object IK6IHU-3. If no packets are shown the sender has not sent any weather packets the latest 10 day(s).
| Time | Temp. | Humidity | Pressure | Rain* | Wind** | Luminosity | Snow |
|---|---|---|---|---|---|---|---|
| 1777447389 | 19.44° C | 49% | 1014.8 hPa | 0 mm | - | 0 W/m² | - |
| 1777447329 | 20° C | 50% | 1014.7 hPa | 0 mm | - | 0 W/m² | - |
| 1777447269 | 20° C | 52% | 1014.7 hPa | 0 mm | - | 0 W/m² | - |
| 1777447209 | 20° C | 53% | 1014.8 hPa | 0 mm | - | 0 W/m² | - |
| 1777447149 | 20° C | 56% | 1014.6 hPa | 0 mm | - | 0 W/m² | - |
| 1777447089 | 20° C | 54% | 1014.6 hPa | 0 mm | - | 0 W/m² | - |
| 1777447028 | 20.56° C | 55% | 1014.7 hPa | 0 mm | - | 0 W/m² | - |
| 1777446969 | 20° C | 56% | 1014.8 hPa | 0 mm | - | 0 W/m² | - |
| 1777446909 | 20° C | 55% | 1014.6 hPa | 0 mm | - | 0 W/m² | - |
| 1777446849 | 19.44° C | 55% | 1014.6 hPa | 0 mm | - | 0 W/m² | - |
| 1777446789 | 19.44° C | 55% | 1014.5 hPa | 0 mm | - | 0 W/m² | - |
| 1777446728 | 20° C | 55% | 1014.6 hPa | 0 mm | - | 0 W/m² | - |
| 1777446669 | 20° C | 55% | 1014.8 hPa | 0 mm | - | 0 W/m² | - |
| 1777446609 | 20° C | 55% | 1014.7 hPa | 0 mm | - | 0 W/m² | - |
| 1777446549 | 20.56° C | 55% | 1014.8 hPa | 0 mm | - | 0 W/m² | - |
| 1777446489 | 20.56° C | 55% | 1014.8 hPa | 0 mm | - | 0 W/m² | - |
| 1777446429 | 20.56° C | 55% | 1014.7 hPa | 0 mm | - | 0 W/m² | - |
| 1777446369 | 20° C | 54% | 1014.6 hPa | 0 mm | - | 0 W/m² | - |
| 1777446309 | 20° C | 55% | 1014.7 hPa | 0 mm | - | 0 W/m² | - |
| 1777446249 | 20° C | 55% | 1014.5 hPa | 0 mm | - | 0 W/m² | - |
| 1777446188 | 20° C | 54% | 1014.8 hPa | 0 mm | - | 0 W/m² | - |
| 1777446129 | 19.44° C | 54% | 1014.6 hPa | 0 mm | - | 0 W/m² | - |
| 1777446069 | 19.44° C | 54% | 1014.8 hPa | 0 mm | - | 0 W/m² | - |
| 1777446009 | 19.44° C | 55% | 1014.7 hPa | 0 mm | - | 0 W/m² | - |
| 1777445949 | 19.44° C | 56% | 1014.7 hPa | 0 mm | - | 0 W/m² | - |
* Rain latest hour (hover to see other rain measurements)
** Current wind speed in m/s (hover to see current wind gust speed)